Time,TemperatureF,DewpointF,PressureIn,WindDirection,WindDirectionDegrees,WindSpeedMPH,WindSpeedGustMPH,Humidity,HourlyPrecipIn,Conditions,Clouds,dailyrainin,SoftwareType,DateUTC
2013-08-29 00:00:00,64.0,59.1,29.99,ESE,112,0.0,2.0,84,0.00,,,0.00,VWS V14.01,2013-08-29 07:00:00,
2013-08-29 00:30:00,63.5,58.9,30.00,West,270,0.0,3.0,85,0.00,,,0.00,VWS V14.01,2013-08-29 07:30:00,
2013-08-29 01:00:00,63.3,58.7,30.00,West,270,0.0,3.0,85,0.00,,,0.00,VWS V14.01,2013-08-29 08:00:00,
2013-08-29 01:30:00,62.9,58.7,30.01,West,270,0.0,3.0,86,0.00,,,0.00,VWS V14.01,2013-08-29 08:30:00,
2013-08-29 02:00:00,62.4,58.5,30.01,West,270,0.0,5.0,87,0.00,,,0.00,VWS V14.01,2013-08-29 09:00:00,
2013-08-29 02:30:00,62.5,58.3,30.01,West,270,0.0,2.0,86,0.00,,,0.00,VWS V14.01,2013-08-29 09:30:00,
2013-08-29 03:00:00,62.1,58.2,30.01,West,270,0.0,4.0,87,0.00,,,0.00,VWS V14.01,2013-08-29 10:00:00,
2013-08-29 03:30:00,61.2,57.9,30.02,West,270,0.0,3.0,89,0.00,,,0.00,VWS V14.01,2013-08-29 10:30:00,
2013-08-29 04:00:00,60.6,57.7,30.02,West,270,0.0,3.0,90,0.00,,,0.00,VWS V14.01,2013-08-29 11:00:00,
2013-08-29 04:30:00,60.4,57.5,30.02,West,270,0.0,2.0,90,0.00,,,0.00,VWS V14.01,2013-08-29 11:30:00,
2013-08-29 05:00:00,60.1,57.2,30.03,West,270,0.0,3.0,90,0.00,,,0.00,VWS V14.01,2013-08-29 12:00:00,
2013-08-29 05:39:00,59.6,57.0,30.04,WSW,240,2.0,2.0,91,0.00,,,0.00,VWS V14.01,2013-08-29 12:39:00,
2013-08-29 05:44:00,59.5,56.9,30.04,SW,214,1.0,2.0,91,0.00,,,0.00,VWS V14.01,2013-08-29 12:44:00,
2013-08-29 05:49:00,59.5,57.2,30.04,West,270,0.0,4.0,92,0.00,,,0.00,VWS V14.01,2013-08-29 12:49:00,
2013-08-29 05:53:00,59.6,57.0,30.04,West,267,0.0,4.0,91,0.00,,,0.00,VWS V14.01,2013-08-29 12:53:00,
2013-08-29 05:58:00,59.7,57.4,30.04,ESE,120,0.0,0.0,92,0.00,,,0.00,VWS V14.01,2013-08-29 12:58:00,
2013-08-29 06:03:00,59.7,57.4,30.04,WSW,256,1.0,5.0,92,0.00,,,0.00,VWS V14.01,2013-08-29 13:03:00,
2013-08-29 06:08:00,59.7,57.4,30.04,WNW,293,2.0,5.0,92,0.00,,,0.00,VWS V14.01,2013-08-29 13:08:00,
2013-08-29 06:13:00,59.8,57.5,30.04,West,277,0.0,5.0,92,0.00,,,0.00,VWS V14.01,2013-08-29 13:13:00,
2013-08-29 06:18:00,59.7,57.1,30.05,West,263,0.0,5.0,91,0.00,,,0.00,VWS V14.01,2013-08-29 13:18:00,
2013-08-29 06:23:00,59.7,57.1,30.05,West,260,0.0,5.0,91,0.00,,,0.00,VWS V14.01,2013-08-29 13:23:00,
2013-08-29 06:28:00,59.6,57.3,30.05,SSW,193,0.0,0.0,92,0.00,,,0.00,VWS V14.01,2013-08-29 13:28:00,
2013-08-29 06:33:00,59.6,57.3,30.05,ESE,105,1.0,1.0,92,0.00,,,0.00,VWS V14.01,2013-08-29 13:33:00,
2013-08-29 06:38:00,59.6,57.3,30.06,West,262,1.0,2.0,92,0.00,,,0.00,VWS V14.01,2013-08-29 13:38:00,
2013-08-29 06:43:00,59.6,57.3,30.06,West,280,0.0,4.0,92,0.00,,,0.00,VWS V14.01,2013-08-29 13:43:00,
2013-08-29 06:48:00,59.7,57.1,30.06,South,173,0.0,5.0,91,0.00,,,0.00,VWS V14.01,2013-08-29 13:48:00,
2013-08-29 06:53:00,59.8,57.2,30.06,West,278,0.0,5.0,91,0.00,,,0.00,VWS V14.01,2013-08-29 13:53:00,
2013-08-29 06:58:00,59.8,57.2,30.06,West,265,0.0,1.0,91,0.00,,,0.00,VWS V14.01,2013-08-29 13:58:00,
2013-08-29 07:03:00,59.8,57.2,30.07,West,281,0.0,2.0,91,0.00,,,0.00,VWS V14.01,2013-08-29 14:03:00,
2013-08-29 07:08:00,59.9,57.3,30.07,West,273,0.0,2.0,91,0.00,,,0.00,VWS V14.01,2013-08-29 14:08:00,
2013-08-29 07:13:00,59.9,57.3,30.07,West,273,0.0,2.0,91,0.00,,,0.00,VWS V14.01,2013-08-29 14:13:00,
2013-08-29 07:18:00,60.0,57.4,30.08,West,277,0.0,2.0,91,0.00,,,0.00,VWS V14.01,2013-08-29 14:18:00,
2013-08-29 07:23:00,60.2,57.6,30.08,WNW,294,0.0,2.0,91,0.00,,,0.00,VWS V14.01,2013-08-29 14:23:00,
2013-08-29 07:28:00,60.4,57.8,30.08,West,259,1.0,1.0,91,0.00,,,0.00,VWS V14.01,2013-08-29 14:28:00,
2013-08-29 07:33:00,60.6,58.0,30.08,WSW,252,0.0,3.0,91,0.00,,,0.00,VWS V14.01,2013-08-29 14:33:00,
2013-08-29 07:38:00,60.8,58.2,30.08,West,270,1.0,3.0,91,0.00,,,0.00,VWS V14.01,2013-08-29 14:38:00,
2013-08-29 07:43:00,61.0,58.0,30.08,NW,311,1.0,4.0,90,0.00,,,0.00,VWS V14.01,2013-08-29 14:43:00,
2013-08-29 07:48:00,61.2,58.2,30.08,SW,225,0.0,4.0,90,0.00,,,0.00,VWS V14.01,2013-08-29 14:48:00,
2013-08-29 07:53:00,61.5,58.2,30.08,South,189,0.0,4.0,89,0.00,,,0.00,VWS V14.01,2013-08-29 14:53:00,
2013-08-29 07:58:00,61.7,58.4,30.08,WNW,287,3.0,3.0,89,0.00,,,0.00,VWS V14.01,2013-08-29 14:58:00,
2013-08-29 08:03:00,62.1,58.8,30.08,SSW,211,1.0,5.0,89,0.00,,,0.00,VWS V14.01,2013-08-29 15:03:00,
2013-08-29 08:08:00,62.2,58.6,30.08,WNW,282,1.0,5.0,88,0.00,,,0.00,VWS V14.01,2013-08-29 15:08:00,
2013-08-29 08:13:00,62.4,58.8,30.09,SSW,206,1.0,6.0,88,0.00,,,0.00,VWS V14.01,2013-08-29 15:13:00,
2013-08-29 08:18:00,62.4,58.8,30.09,SW,219,1.0,6.0,88,0.00,,,0.00,VWS V14.01,2013-08-29 15:18:00,
2013-08-29 08:23:00,62.7,59.1,30.09,SSE,148,1.0,8.0,88,0.00,,,0.00,VWS V14.01,2013-08-29 15:23:00,
2013-08-29 08:28:00,62.9,59.0,30.09,SSW,193,0.0,1.0,87,0.00,,,0.00,VWS V14.01,2013-08-29 15:28:00,
2013-08-29 08:33:00,63.2,59.6,30.09,WSW,256,5.0,5.0,88,0.00,,,0.00,VWS V14.01,2013-08-29 15:33:00,
2013-08-29 08:38:00,63.6,59.7,30.09,SW,215,2.0,7.0,87,0.00,,,0.00,VWS V14.01,2013-08-29 15:38:00,
2013-08-29 08:43:00,64.0,59.7,30.09,West,272,0.0,7.0,86,0.00,,,0.00,VWS V14.01,2013-08-29 15:43:00,
2013-08-29 08:48:00,64.4,60.1,30.09,SW,231,3.0,7.0,86,0.00,,,0.00,VWS V14.01,2013-08-29 15:48:00,
2013-08-29 08:53:00,64.9,60.3,30.09,WSW,256,4.0,9.0,85,0.00,,,0.00,VWS V14.01,2013-08-29 15:53:00,
2013-08-29 08:58:00,65.8,60.5,30.10,SE,134,1.0,1.0,83,0.00,,,0.00,VWS V14.01,2013-08-29 15:58:00,
2013-08-29 09:03:00,66.5,61.2,30.09,West,271,2.0,4.0,83,0.00,,,0.00,VWS V14.01,2013-08-29 16:03:00,
2013-08-29 09:08:00,67.0,61.0,30.10,West,280,0.0,5.0,81,0.00,,,0.00,VWS V14.01,2013-08-29 16:08:00,
2013-08-29 09:13:00,67.4,61.0,30.10,WSW,239,2.0,5.0,80,0.00,,,0.00,VWS V14.01,2013-08-29 16:13:00,
2013-08-29 09:18:00,68.1,61.7,30.10,SSW,200,0.0,5.0,80,0.00,,,0.00,VWS V14.01,2013-08-29 16:18:00,
2013-08-29 09:23:00,68.7,61.9,30.10,SSE,168,1.0,5.0,79,0.00,,,0.00,VWS V14.01,2013-08-29 16:23:00,
2013-08-29 09:28:00,69.2,61.7,30.10,SSW,203,1.0,2.0,77,0.00,,,0.00,VWS V14.01,2013-08-29 16:28:00,
2013-08-29 09:33:00,69.8,61.5,30.10,SSW,195,2.0,7.0,75,0.00,,,0.00,VWS V14.01,2013-08-29 16:33:00,
2013-08-29 09:38:00,69.7,61.8,30.11,South,175,2.0,7.0,76,0.00,,,0.00,VWS V14.01,2013-08-29 16:38:00,
2013-08-29 09:43:00,70.3,62.0,30.11,WNW,298,1.0,7.0,75,0.00,,,0.00,VWS V14.01,2013-08-29 16:43:00,
2013-08-29 09:48:00,70.7,62.4,30.11,WSW,257,2.0,7.0,75,0.00,,,0.00,VWS V14.01,2013-08-29 16:48:00,
2013-08-29 09:53:00,71.5,62.4,30.11,West,278,0.0,7.0,73,0.00,,,0.00,VWS V14.01,2013-08-29 16:53:00,
2013-08-29 09:58:00,72.5,63.0,30.11,NNW,332,1.0,1.0,72,0.00,,,0.00,VWS V14.01,2013-08-29 16:58:00,
2013-08-29 10:03:00,72.7,62.8,30.11,West,263,1.0,5.0,71,0.00,,,0.00,VWS V14.01,2013-08-29 17:03:00,
2013-08-29 10:08:00,72.5,63.4,30.11,WSW,239,1.0,5.0,73,0.00,,,0.00,VWS V14.01,2013-08-29 17:08:00,
2013-08-29 10:13:00,72.5,62.6,30.11,SSE,165,0.0,5.0,71,0.00,,,0.00,VWS V14.01,2013-08-29 17:13:00,
2013-08-29 10:18:00,72.8,62.5,30.11,WNW,287,0.0,5.0,70,0.00,,,0.00,VWS V14.01,2013-08-29 17:18:00,
2013-08-29 10:23:00,72.7,63.2,30.11,WSW,246,2.0,5.0,72,0.00,,,0.00,VWS V14.01,2013-08-29 17:23:00,
2013-08-29 10:28:00,73.2,62.8,30.11,West,263,1.0,2.0,70,0.00,,,0.00,VWS V14.01,2013-08-29 17:28:00,
2013-08-29 10:33:00,73.2,62.4,30.10,West,262,0.0,3.0,69,0.00,,,0.00,VWS V14.01,2013-08-29 17:33:00,
2013-08-29 10:38:00,74.0,63.6,30.10,WSW,246,1.0,3.0,70,0.00,,,0.00,VWS V14.01,2013-08-29 17:38:00,
2013-08-29 10:43:00,74.9,63.2,30.10,WSW,244,1.0,3.0,67,0.00,,,0.00,VWS V14.01,2013-08-29 17:43:00,
2013-08-29 10:48:00,75.0,62.9,30.10,West,271,0.0,5.0,66,0.00,,,0.00,VWS V14.01,2013-08-29 17:48:00,
2013-08-29 10:53:00,74.9,63.2,30.10,West,269,2.0,5.0,67,0.00,,,0.00,VWS V14.01,2013-08-29 17:53:00,
2013-08-29 10:58:00,74.9,63.2,30.10,West,264,1.0,1.0,67,0.00,,,0.00,VWS V14.01,2013-08-29 17:58:00,
2013-08-29 11:03:00,75.5,63.8,30.10,SSW,200,1.0,3.0,67,0.00,,,0.00,VWS V14.01,2013-08-29 18:03:00,
2013-08-29 11:08:00,76.5,63.9,30.10,ESE,110,2.0,3.0,65,0.00,,,0.00,VWS V14.01,2013-08-29 18:08:00,
2013-08-29 11:13:00,76.9,63.8,30.10,WSW,240,1.0,6.0,64,0.00,,,0.00,VWS V14.01,2013-08-29 18:13:00,
2013-08-29 11:18:00,77.2,64.1,30.10,West,278,1.0,6.0,64,0.00,,,0.00,VWS V14.01,2013-08-29 18:18:00,
2013-08-29 11:23:00,77.8,64.7,30.10,West,267,3.0,6.0,64,0.00,,,0.00,VWS V14.01,2013-08-29 18:23:00,
2013-08-29 11:28:00,78.3,64.2,30.10,WNW,295,1.0,1.0,62,0.00,,,0.00,VWS V14.01,2013-08-29 18:28:00,
2013-08-29 11:33:00,78.2,65.0,30.10,WNW,285,0.0,5.0,64,0.00,,,0.00,VWS V14.01,2013-08-29 18:33:00,
2013-08-29 11:38:00,78.5,63.5,30.10,WSW,245,4.0,7.0,60,0.00,,,0.00,VWS V14.01,2013-08-29 18:38:00,
2013-08-29 11:43:00,78.1,63.6,30.11,SW,214,1.0,7.0,61,0.00,,,0.00,VWS V14.01,2013-08-29 18:43:00,
2013-08-29 11:48:00,78.5,64.0,30.11,WSW,257,1.0,7.0,61,0.00,,,0.00,VWS V14.01,2013-08-29 18:48:00,
2013-08-29 11:53:00,78.4,63.8,30.11,West,267,3.0,7.0,61,0.00,,,0.00,VWS V14.01,2013-08-29 18:53:00,
2013-08-29 11:58:00,78.5,64.0,30.10,SSW,198,4.0,7.0,61,0.00,,,0.00,VWS V14.01,2013-08-29 18:58:00,
2013-08-29 12:03:00,78.7,64.6,30.10,SW,224,1.0,4.0,62,0.00,,,0.00,VWS V14.01,2013-08-29 19:03:00,
2013-08-29 12:08:00,79.0,63.9,30.10,West,264,2.0,7.0,60,0.00,,,0.00,VWS V14.01,2013-08-29 19:08:00,
2013-08-29 12:13:00,79.3,64.7,30.10,North,357,1.0,7.0,61,0.00,,,0.00,VWS V14.01,2013-08-29 19:13:00,
2013-08-29 12:18:00,79.7,64.6,30.10,NW,311,4.0,7.0,60,0.00,,,0.00,VWS V14.01,2013-08-29 19:18:00,
2013-08-29 12:23:00,79.8,64.2,30.10,SSW,195,3.0,7.0,59,0.00,,,0.00,VWS V14.01,2013-08-29 19:23:00,
2013-08-29 12:28:00,80.2,64.6,30.10,ESE,106,2.0,7.0,59,0.00,,,0.00,VWS V14.01,2013-08-29 19:28:00,
2013-08-29 12:33:00,80.1,64.0,30.10,South,179,2.0,3.0,58,0.00,,,0.00,VWS V14.01,2013-08-29 19:33:00,
2013-08-29 12:38:00,80.7,64.6,30.10,WNW,291,3.0,4.0,58,0.00,,,0.00,VWS V14.01,2013-08-29 19:38:00,
2013-08-29 12:43:00,80.9,64.2,30.10,WSW,257,3.0,6.0,57,0.00,,,0.00,VWS V14.01,2013-08-29 19:43:00,
2013-08-29 12:48:00,80.9,64.8,30.10,South,181,3.0,6.0,58,0.00,,,0.00,VWS V14.01,2013-08-29 19:48:00,
2013-08-29 12:53:00,81.2,65.5,30.09,SSW,201,1.0,6.0,59,0.00,,,0.00,VWS V14.01,2013-08-29 19:53:00,
2013-08-29 12:58:00,81.9,64.7,30.09,North,355,2.0,6.0,56,0.00,,,0.00,VWS V14.01,2013-08-29 19:58:00,
2013-08-29 13:03:00,81.8,65.6,30.09,SSE,155,2.0,4.0,58,0.00,,,0.00,VWS V14.01,2013-08-29 20:03:00,
2013-08-29 13:08:00,82.3,65.6,30.09,West,260,0.0,4.0,57,0.00,,,0.00,VWS V14.01,2013-08-29 20:08:00,
2013-08-29 13:13:00,82.8,64.5,30.09,WNW,287,4.0,4.0,54,0.00,,,0.00,VWS V14.01,2013-08-29 20:13:00,
2013-08-29 13:18:00,83.1,64.8,30.09,WSW,238,1.0,5.0,54,0.00,,,0.00,VWS V14.01,2013-08-29 20:18:00,
2013-08-29 13:23:00,83.4,64.0,30.09,SSE,148,2.0,6.0,52,0.00,,,0.00,VWS V14.01,2013-08-29 20:23:00,
2013-08-29 13:28:00,83.3,62.2,30.08,West,264,5.0,7.0,49,0.00,,,0.00,VWS V14.01,2013-08-29 20:28:00,
2013-08-29 13:33:00,83.1,62.0,30.08,SSW,210,2.0,6.0,49,0.00,,,0.00,VWS V14.01,2013-08-29 20:33:00,
2013-08-29 13:38:00,83.6,61.8,30.08,West,266,2.0,6.0,48,0.00,,,0.00,VWS V14.01,2013-08-29 20:38:00,
2013-08-29 13:43:00,83.9,62.1,30.08,WNW,298,1.0,6.0,48,0.00,,,0.00,VWS V14.01,2013-08-29 20:43:00,
2013-08-29 13:48:00,84.3,63.1,30.08,WNW,287,2.0,6.0,49,0.00,,,0.00,VWS V14.01,2013-08-29 20:48:00,
2013-08-29 13:53:00,84.5,62.7,30.08,West,262,5.0,6.0,48,0.00,,,0.00,VWS V14.01,2013-08-29 20:53:00,
2013-08-29 13:58:00,84.8,62.3,30.08,SSW,203,2.0,6.0,47,0.00,,,0.00,VWS V14.01,2013-08-29 20:58:00,
2013-08-29 14:03:00,85.0,61.9,30.08,WSW,247,2.0,5.0,46,0.00,,,0.00,VWS V14.01,2013-08-29 21:03:00,
2013-08-29 14:07:00,84.9,61.8,30.08,West,259,0.0,10.0,46,0.00,,,0.00,VWS V14.01,2013-08-29 21:07:00,
2013-08-29 14:12:00,84.8,61.7,30.08,SW,236,5.0,10.0,46,0.00,,,0.00,VWS V14.01,2013-08-29 21:12:00,
2013-08-29 14:17:00,85.4,62.3,30.08,WNW,290,1.0,10.0,46,0.00,,,0.00,VWS V14.01,2013-08-29 21:17:00,
2013-08-29 14:22:00,85.7,61.3,30.08,SW,226,2.0,10.0,44,0.00,,,0.00,VWS V14.01,2013-08-29 21:22:00,
2013-08-29 14:27:00,85.9,61.5,30.08,WNW,298,2.0,10.0,44,0.00,,,0.00,VWS V14.01,2013-08-29 21:27:00,
2013-08-29 14:32:00,85.7,60.7,30.08,North,358,2.0,6.0,43,0.00,,,0.00,VWS V14.01,2013-08-29 21:32:00,
2013-08-29 14:37:00,85.9,62.1,30.07,WSW,252,2.0,6.0,45,0.00,,,0.00,VWS V14.01,2013-08-29 21:37:00,
2013-08-29 14:42:00,86.3,61.8,30.07,WSW,248,1.0,6.0,44,0.00,,,0.00,VWS V14.01,2013-08-29 21:42:00,
2013-08-29 14:47:00,86.5,60.7,30.07,West,269,3.0,6.0,42,0.00,,,0.00,VWS V14.01,2013-08-29 21:47:00,
2013-08-29 14:52:00,86.1,60.3,30.07,NNE,22,2.0,6.0,42,0.00,,,0.00,VWS V14.01,2013-08-29 21:52:00,
2013-08-29 14:57:00,85.5,61.8,30.07,South,177,2.0,6.0,45,0.00,,,0.00,VWS V14.01,2013-08-29 21:57:00,
2013-08-29 15:02:00,85.7,61.3,30.07,SW,235,3.0,7.0,44,0.00,,,0.00,VWS V14.01,2013-08-29 22:02:00,
2013-08-29 15:07:00,85.7,60.7,30.07,SSW,201,2.0,7.0,43,0.00,,,0.00,VWS V14.01,2013-08-29 22:07:00,
2013-08-29 15:12:00,86.1,61.0,30.06,West,271,2.0,7.0,43,0.00,,,0.00,VWS V14.01,2013-08-29 22:12:00,
2013-08-29 15:17:00,86.5,60.0,30.06,SSW,201,4.0,7.0,41,0.00,,,0.00,VWS V14.01,2013-08-29 22:17:00,
2013-08-29 15:22:00,87.0,61.8,30.06,SSE,165,3.0,7.0,43,0.00,,,0.00,VWS V14.01,2013-08-29 22:22:00,
2013-08-29 15:27:00,87.0,60.5,30.06,SSW,205,6.0,7.0,41,0.00,,,0.00,VWS V14.01,2013-08-29 22:27:00,
2013-08-29 15:32:00,87.0,59.1,30.06,East,82,0.0,5.0,39,0.00,,,0.00,VWS V14.01,2013-08-29 22:32:00,
2013-08-29 15:37:00,87.1,58.4,30.06,SSW,200,1.0,8.0,38,0.00,,,0.00,VWS V14.01,2013-08-29 22:37:00,
2013-08-29 15:42:00,87.4,58.7,30.06,WSW,250,2.0,8.0,38,0.00,,,0.00,VWS V14.01,2013-08-29 22:42:00,
2013-08-29 15:47:00,87.4,60.1,30.06,WNW,283,1.0,8.0,40,0.00,,,0.00,VWS V14.01,2013-08-29 22:47:00,
2013-08-29 15:52:00,87.0,59.1,30.05,East,85,4.0,8.0,39,0.00,,,0.00,VWS V14.01,2013-08-29 22:52:00,
2013-08-29 15:57:00,87.1,59.9,30.06,West,263,1.0,8.0,40,0.00,,,0.00,VWS V14.01,2013-08-29 22:57:00,
2013-08-29 16:02:00,87.3,59.3,30.05,SSW,210,1.0,5.0,39,0.00,,,0.00,VWS V14.01,2013-08-29 23:02:00,
2013-08-29 16:07:00,87.5,56.5,30.06,SW,229,5.0,5.0,35,0.00,,,0.00,VWS V14.01,2013-08-29 23:07:00,
2013-08-29 16:12:00,87.2,57.8,30.05,South,185,3.0,5.0,37,0.00,,,0.00,VWS V14.01,2013-08-29 23:12:00,
2013-08-29 16:17:00,87.0,58.3,30.05,NNW,333,0.0,5.0,38,0.00,,,0.00,VWS V14.01,2013-08-29 23:17:00,
2013-08-29 16:22:00,87.4,56.4,30.05,SSE,149,3.0,6.0,35,0.00,,,0.00,VWS V14.01,2013-08-29 23:22:00,
2013-08-29 16:27:00,87.4,58.0,30.05,WSW,250,1.0,6.0,37,0.00,,,0.00,VWS V14.01,2013-08-29 23:27:00,
2013-08-29 16:32:00,87.3,59.3,30.04,WSW,246,1.0,3.0,39,0.00,,,0.00,VWS V14.01,2013-08-29 23:32:00,
2013-08-29 16:37:00,87.4,60.1,30.04,WNW,292,3.0,4.0,40,0.00,,,0.00,VWS V14.01,2013-08-29 23:37:00,
2013-08-29 16:42:00,86.8,58.9,30.04,West,271,1.0,8.0,39,0.00,,,0.00,VWS V14.01,2013-08-29 23:42:00,
2013-08-29 16:47:00,86.5,57.9,30.04,West,274,1.0,8.0,38,0.00,,,0.00,VWS V14.01,2013-08-29 23:47:00,
2013-08-29 16:52:00,86.3,58.5,30.04,West,268,2.0,8.0,39,0.00,,,0.00,VWS V14.01,2013-08-29 23:52:00,
2013-08-29 16:57:00,86.3,59.2,30.04,WNW,293,2.0,8.0,40,0.00,,,0.00,VWS V14.01,2013-08-29 23:57:00,
2013-08-29 17:02:00,86.1,59.7,30.04,SW,221,3.0,5.0,41,0.00,,,0.00,VWS V14.01,2013-08-30 00:02:00,
2013-08-29 17:07:00,86.2,59.1,30.04,WNW,297,2.0,6.0,40,0.00,,,0.00,VWS V14.01,2013-08-30 00:07:00,
2013-08-29 17:12:00,86.1,59.7,30.04,SSW,201,1.0,6.0,41,0.00,,,0.00,VWS V14.01,2013-08-30 00:12:00,
2013-08-29 17:17:00,86.0,60.3,30.04,SSW,203,2.0,6.0,42,0.00,,,0.00,VWS V14.01,2013-08-30 00:17:00,
2013-08-29 17:22:00,85.8,60.1,30.03,ESE,105,1.0,6.0,42,0.00,,,0.00,VWS V14.01,2013-08-30 00:22:00,
2013-08-29 17:27:00,85.3,59.6,30.03,ESE,118,2.0,6.0,42,0.00,,,0.00,VWS V14.01,2013-08-30 00:27:00,
2013-08-29 17:32:00,85.1,60.1,30.03,West,264,2.0,5.0,43,0.00,,,0.00,VWS V14.01,2013-08-30 00:32:00,
2013-08-29 17:37:00,85.1,60.1,30.03,SW,225,1.0,5.0,43,0.00,,,0.00,VWS V14.01,2013-08-30 00:37:00,
2013-08-29 17:42:00,85.2,60.2,30.04,WNW,284,8.0,8.0,43,0.00,,,0.00,VWS V14.01,2013-08-30 00:42:00,
2013-08-29 17:47:00,84.8,59.8,30.04,South,183,1.0,8.0,43,0.00,,,0.00,VWS V14.01,2013-08-30 00:47:00,
2013-08-29 17:52:00,84.5,59.6,30.03,WNW,295,2.0,8.0,43,0.00,,,0.00,VWS V14.01,2013-08-30 00:52:00,
2013-08-29 17:57:00,84.5,59.6,30.03,WNW,285,2.0,8.0,43,0.00,,,0.00,VWS V14.01,2013-08-30 00:57:00,
2013-08-29 18:02:00,84.3,59.4,30.03,West,268,2.0,4.0,43,0.00,,,0.00,VWS V14.01,2013-08-30 01:02:00,
2013-08-29 18:07:00,84.2,59.3,30.04,SW,222,1.0,4.0,43,0.00,,,0.00,VWS V14.01,2013-08-30 01:07:00,
2013-08-29 18:12:00,84.1,59.2,30.03,West,277,3.0,5.0,43,0.00,,,0.00,VWS V14.01,2013-08-30 01:12:00,
2013-08-29 18:17:00,83.6,59.4,30.03,WNW,295,2.0,5.0,44,0.00,,,0.00,VWS V14.01,2013-08-30 01:17:00,
2013-08-29 18:22:00,83.3,59.8,30.03,West,262,2.0,5.0,45,0.00,,,0.00,VWS V14.01,2013-08-30 01:22:00,
2013-08-29 18:27:00,83.1,59.6,30.03,South,186,1.0,5.0,45,0.00,,,0.00,VWS V14.01,2013-08-30 01:27:00,
2013-08-29 18:32:00,82.7,59.2,30.03,WNW,283,2.0,5.0,45,0.00,,,0.00,VWS V14.01,2013-08-30 01:32:00,
2013-08-29 18:37:00,82.4,59.0,30.03,West,276,2.0,5.0,45,0.00,,,0.00,VWS V14.01,2013-08-30 01:37:00,
2013-08-29 18:42:00,82.2,59.4,30.03,SSW,208,0.0,5.0,46,0.00,,,0.00,VWS V14.01,2013-08-30 01:42:00,
2013-08-29 18:47:00,81.8,59.0,30.03,SW,224,0.0,5.0,46,0.00,,,0.00,VWS V14.01,2013-08-30 01:47:00,
2013-08-29 18:52:00,81.2,59.1,30.03,West,264,1.0,5.0,47,0.00,,,0.00,VWS V14.01,2013-08-30 01:52:00,
2013-08-29 18:57:00,80.5,59.0,30.03,West,281,1.0,5.0,48,0.00,,,0.00,VWS V14.01,2013-08-30 01:57:00,
2013-08-29 19:02:00,79.9,59.0,30.03,SW,220,1.0,5.0,49,0.00,,,0.00,VWS V14.01,2013-08-30 02:02:00,
2013-08-29 19:07:00,79.5,59.2,30.03,South,175,3.0,5.0,50,0.00,,,0.00,VWS V14.01,2013-08-30 02:07:00,
2013-08-29 19:12:00,79.0,59.3,30.03,WNW,301,2.0,5.0,51,0.00,,,0.00,VWS V14.01,2013-08-30 02:12:00,
2013-08-29 19:17:00,78.6,59.0,30.03,WNW,285,1.0,5.0,51,0.00,,,0.00,VWS V14.01,2013-08-30 02:17:00,
2013-08-29 19:22:00,78.0,59.0,30.03,NE,50,0.0,5.0,52,0.00,,,0.00,VWS V14.01,2013-08-30 02:22:00,
2013-08-29 19:27:00,77.5,59.0,30.04,NNE,33,1.0,5.0,53,0.00,,,0.00,VWS V14.01,2013-08-30 02:27:00,
2013-08-29 19:32:00,76.9,59.5,30.04,West,259,1.0,4.0,55,0.00,,,0.00,VWS V14.01,2013-08-30 02:32:00,
2013-08-29 19:37:00,76.3,59.5,30.04,SSW,210,1.0,4.0,56,0.00,,,0.00,VWS V14.01,2013-08-30 02:37:00,
2013-08-29 19:42:00,75.8,59.0,30.04,West,266,1.0,4.0,56,0.00,,,0.00,VWS V14.01,2013-08-30 02:42:00,
2013-08-29 19:47:00,75.4,58.6,30.04,West,273,2.0,5.0,56,0.00,,,0.00,VWS V14.01,2013-08-30 02:47:00,
2013-08-29 19:52:00,75.1,58.8,30.05,NE,54,0.0,5.0,57,0.00,,,0.00,VWS V14.01,2013-08-30 02:52:00,
2013-08-29 19:57:00,74.7,59.0,30.05,SW,214,1.0,5.0,58,0.00,,,0.00,VWS V14.01,2013-08-30 02:57:00,
2013-08-29 20:02:00,74.4,59.2,30.05,WSW,238,1.0,3.0,59,0.00,,,0.00,VWS V14.01,2013-08-30 03:02:00,
2013-08-29 20:07:00,74.0,58.8,30.05,SSW,200,2.0,4.0,59,0.00,,,0.00,VWS V14.01,2013-08-30 03:07:00,
2013-08-29 20:12:00,73.7,59.0,30.05,SSW,207,0.0,4.0,60,0.00,,,0.00,VWS V14.01,2013-08-30 03:12:00,
2013-08-29 20:17:00,73.4,58.7,30.05,SSE,156,1.0,4.0,60,0.00,,,0.00,VWS V14.01,2013-08-30 03:17:00,
2013-08-29 20:22:00,73.2,59.0,30.05,South,187,0.0,4.0,61,0.00,,,0.00,VWS V14.01,2013-08-30 03:22:00,
2013-08-29 20:27:00,72.8,58.6,30.05,SW,215,0.0,4.0,61,0.00,,,0.00,VWS V14.01,2013-08-30 03:27:00,
2013-08-29 20:32:00,72.5,58.8,30.05,SSW,207,0.0,1.0,62,0.00,,,0.00,VWS V14.01,2013-08-30 03:32:00,
2013-08-29 20:37:00,72.2,58.9,30.06,South,188,0.0,1.0,63,0.00,,,0.00,VWS V14.01,2013-08-30 03:37:00,
2013-08-29 20:42:00,71.9,59.1,30.06,West,276,0.0,1.0,64,0.00,,,0.00,VWS V14.01,2013-08-30 03:42:00,
2013-08-29 20:47:00,71.5,58.7,30.06,West,276,0.0,1.0,64,0.00,,,0.00,VWS V14.01,2013-08-30 03:47:00,
2013-08-29 20:52:00,71.2,58.8,30.07,West,276,0.0,1.0,65,0.00,,,0.00,VWS V14.01,2013-08-30 03:52:00,
2013-08-29 20:57:00,70.9,59.0,30.07,West,276,0.0,1.0,66,0.00,,,0.00,VWS V14.01,2013-08-30 03:57:00,
2013-08-29 21:01:00,70.5,59.0,30.07,West,276,0.0,0.0,67,0.00,,,0.00,VWS V14.01,2013-08-30 04:01:00,
2013-08-29 21:03:00,70.3,58.8,30.07,West,276,0.0,0.0,67,0.00,,,0.00,VWS V14.01,2013-08-30 04:03:00,
2013-08-29 21:08:00,69.9,58.9,30.07,WSW,238,0.0,0.0,68,0.00,,,0.00,VWS V14.01,2013-08-30 04:08:00,
2013-08-29 21:13:00,69.4,58.8,30.07,WSW,238,0.0,0.0,69,0.00,,,0.00,VWS V14.01,2013-08-30 04:13:00,
2013-08-29 21:18:00,68.9,59.1,30.07,WSW,238,0.0,0.0,71,0.00,,,0.00,VWS V14.01,2013-08-30 04:18:00,
2013-08-29 21:23:00,68.5,58.7,30.07,WSW,238,0.0,0.0,71,0.00,,,0.00,VWS V14.01,2013-08-30 04:23:00,
2013-08-29 21:28:00,68.2,58.8,30.07,West,266,0.0,0.0,72,0.00,,,0.00,VWS V14.01,2013-08-30 04:28:00,
2013-08-29 21:33:00,68.4,59.0,30.07,West,266,0.0,1.0,72,0.00,,,0.00,VWS V14.01,2013-08-30 04:33:00,
2013-08-29 21:38:00,68.3,58.9,30.07,West,267,0.0,1.0,72,0.00,,,0.00,VWS V14.01,2013-08-30 04:38:00,
2013-08-29 21:43:00,68.4,59.0,30.07,West,262,0.0,1.0,72,0.00,,,0.00,VWS V14.01,2013-08-30 04:43:00,
2013-08-29 21:48:00,68.5,58.7,30.07,West,260,0.0,1.0,71,0.00,,,0.00,VWS V14.01,2013-08-30 04:48:00,
2013-08-29 21:53:00,68.5,59.1,30.08,West,265,0.0,1.0,72,0.00,,,0.00,VWS V14.01,2013-08-30 04:53:00,
2013-08-29 21:58:00,68.4,59.0,30.08,South,190,0.0,0.0,72,0.00,,,0.00,VWS V14.01,2013-08-30 04:58:00,
2013-08-29 22:03:00,68.3,58.9,30.08,SSW,208,0.0,0.0,72,0.00,,,0.00,VWS V14.01,2013-08-30 05:03:00,
2013-08-29 22:08:00,68.3,58.9,30.08,West,277,0.0,1.0,72,0.00,,,0.00,VWS V14.01,2013-08-30 05:08:00,
2013-08-29 22:13:00,68.2,58.8,30.08,West,277,0.0,1.0,72,0.00,,,0.00,VWS V14.01,2013-08-30 05:13:00,
2013-08-29 22:18:00,68.3,58.9,30.08,West,270,0.0,1.0,72,0.00,,,0.00,VWS V14.01,2013-08-30 05:18:00,
2013-08-29 22:23:00,68.3,58.9,30.08,ESE,116,0.0,2.0,72,0.00,,,0.00,VWS V14.01,2013-08-30 05:23:00,
2013-08-29 22:28:00,68.2,58.8,30.08,SSW,194,2.0,3.0,72,0.00,,,0.00,VWS V14.01,2013-08-30 05:28:00,
2013-08-29 22:33:00,68.2,58.8,30.08,WSW,241,0.0,3.0,72,0.00,,,0.00,VWS V14.01,2013-08-30 05:33:00,
2013-08-29 22:38:00,68.2,58.8,30.08,West,270,0.0,3.0,72,0.00,,,0.00,VWS V14.01,2013-08-30 05:38:00,
2013-08-29 22:43:00,68.1,58.7,30.08,SW,216,0.0,3.0,72,0.00,,,0.00,VWS V14.01,2013-08-30 05:43:00,
2013-08-29 22:48:00,68.0,58.7,30.08,SW,215,0.0,3.0,72,0.00,,,0.00,VWS V14.01,2013-08-30 05:48:00,
2013-08-29 22:53:00,67.8,58.5,30.08,SW,225,0.0,3.0,72,0.00,,,0.00,VWS V14.01,2013-08-30 05:53:00,
2013-08-29 22:58:00,67.8,58.8,30.08,West,271,0.0,0.0,73,0.00,,,0.00,VWS V14.01,2013-08-30 05:58:00,
2013-08-29 23:03:00,67.8,58.8,30.08,SE,133,0.0,0.0,73,0.00,,,0.00,VWS V14.01,2013-08-30 06:03:00,
2013-08-29 23:08:00,67.8,58.8,30.08,South,179,0.0,1.0,73,0.00,,,0.00,VWS V14.01,2013-08-30 06:08:00,
2013-08-29 23:13:00,68.0,59.0,30.08,West,259,1.0,2.0,73,0.00,,,0.00,VWS V14.01,2013-08-30 06:13:00,
2013-08-29 23:18:00,68.2,58.8,30.08,SW,222,0.0,2.0,72,0.00,,,0.00,VWS V14.01,2013-08-30 06:18:00,
2013-08-29 23:23:00,68.3,58.9,30.08,SSE,162,0.0,2.0,72,0.00,,,0.00,VWS V14.01,2013-08-30 06:23:00,
2013-08-29 23:28:00,68.2,59.2,30.08,West,278,0.0,0.0,73,0.00,,,0.00,VWS V14.01,2013-08-30 06:28:00,
2013-08-29 23:33:00,68.1,59.1,30.08,West,274,0.0,1.0,73,0.00,,,0.00,VWS V14.01,2013-08-30 06:33:00,
2013-08-29 23:38:00,68.1,59.1,30.08,WSW,257,0.0,1.0,73,0.00,,,0.00,VWS V14.01,2013-08-30 06:38:00,
2013-08-29 23:43:00,68.0,59.0,30.08,West,277,0.0,1.0,73,0.00,,,0.00,VWS V14.01,2013-08-30 06:43:00,
2013-08-29 23:48:00,67.9,58.9,30.08,West,277,0.0,1.0,73,0.00,,,0.00,VWS V14.01,2013-08-30 06:48:00,
2013-08-29 23:53:00,67.8,59.2,30.08,West,259,1.0,3.0,74,0.00,,,0.00,VWS V14.01,2013-08-30 06:53:00,
2013-08-29 23:58:00,67.9,59.3,30.08,SSW,205,0.0,0.0,74,0.00,,,0.00,VWS V14.01,2013-08-30 06:58:00,